{"data":{"norad_id":61715,"epoch":"2026-05-25T03:27:06.543072Z","epoch_age_seconds":52788,"freshness":"FRESH","line1":"1 61715U 24196J   26145.14382573 -.00000036  00000+0  10901-4 0  9997","line2":"2 61715  53.1617 106.1029 0001315  89.4038 270.7114 15.30188824 88868","mean_motion":15.30188824,"eccentricity":0.0001315,"inclination_deg":53.1617,"raan_deg":106.1029,"arg_perigee_deg":89.4038,"mean_anomaly_deg":270.7114,"bstar":1.0901e-5,"rev_number":8886,"period_min":94.10603302119,"perigee_km":474.34721895869,"apogee_km":476.14965932918,"semimajor_km":6853.3854391439,"source":"CELESTRAK","updated_at":"2026-05-25T13:38:19.445416Z"}}